This is the latest recevied weather packets stored in our database for station/object OZ1IEP-5. If no packets are shown the sender has not sent any weather packets the latest 10 day(s).
| Time | Temp. | Humidity | Pressure | Rain* | Wind** | Luminosity | Snow |
|---|---|---|---|---|---|---|---|
| 1787548806 | 14.44° C | 92% | 1018.6 hPa | 0 mm | - | 40 W/m² | - |
| 1787548206 | 14.44° C | 92% | 1018.6 hPa | 0 mm | - | 35 W/m² | - |
| 1787547608 | 14.44° C | 92% | 1018.5 hPa | 0 mm | - | 25 W/m² | - |
| 1787547006 | 14.44° C | 92% | 1018.4 hPa | 0 mm | - | 47 W/m² | - |
| 1787546406 | 14.44° C | 92% | 1018.3 hPa | 0 mm | - | 39 W/m² | - |
| 1787545808 | 13.89° C | 92% | 1018.3 hPa | 0 mm | - | 30 W/m² | - |
| 1787545206 | 13.89° C | 92% | 1018.4 hPa | 0 mm | - | 16 W/m² | - |
| 1787544606 | 13.89° C | 92% | 1018.3 hPa | 0 mm | - | 7 W/m² | - |
| 1787544011 | 13.89° C | 92% | 1018.4 hPa | 0 mm | - | 0 W/m² | - |
| 1787543407 | 14.44° C | 91% | 1018.3 hPa | 0 mm | - | 0 W/m² | - |
| 1787542807 | 14.44° C | 91% | 1018.3 hPa | 0 mm | - | 0 W/m² | - |
| 1787542210 | 14.44° C | 92% | 1018.3 hPa | 0 mm | - | 0 W/m² | - |
| 1787541607 | 14.44° C | 92% | 1018.3 hPa | 0 mm | - | 0 W/m² | - |
| 1787541008 | 14.44° C | 92% | 1018.3 hPa | 0 mm | - | 0 W/m² | - |
| 1787540408 | 14.44° C | 92% | 1018.1 hPa | 0 mm | - | 0 W/m² | - |
| 1787539806 | 14.44° C | 92% | 1018.1 hPa | 0 mm | - | 0 W/m² | - |
| 1787539206 | 15° C | 92% | 1017.9 hPa | 0 mm | - | 0 W/m² | - |
| 1787538608 | 15° C | 92% | 1017.8 hPa | 0 mm | - | 0 W/m² | - |
| 1787538006 | 15° C | 92% | 1017.8 hPa | 0 mm | - | 0 W/m² | - |
| 1787537406 | 15° C | 92% | 1017.8 hPa | 0 mm | - | 0 W/m² | - |
| 1787536808 | 15° C | 91% | 1017.8 hPa | 0 mm | - | 0 W/m² | - |
| 1787536206 | 14.44° C | 91% | 1017.7 hPa | 0 mm | - | 0 W/m² | - |
| 1787535605 | 14.44° C | 91% | 1017.7 hPa | 0 mm | - | 0 W/m² | - |
| 1787535008 | 15° C | 91% | 1017.7 hPa | 0 mm | - | 0 W/m² | - |
| 1787534406 | 15° C | 91% | 1017.7 hPa | 0 mm | - | 0 W/m² | - |
* Rain latest hour (hover to see other rain measurements)
** Current wind speed in m/s (hover to see current wind gust speed)